| time (UTC) | temp F | wind direction | speed MPH | gust MPH | rain 1hr in | rain 24hr in | rain mn in | humidity % | barometer mb |
| 20260507184531 | 55 | 113 | 0.0 | 1.0 | 0.00 | 0.00 | 0.00 | 76 | 1014.0 |
| 20260507183038 | 55 | 0 | 0.0 | 1.0 | 0.00 | 0.00 | 0.00 | 76 | 1014.0 |
| 20260507181530 | 57 | 78 | 0.0 | 1.0 | 0.00 | 0.00 | 0.00 | 74 | 1014.0 |
| 20260507180038 | 56 | 101 | 0.0 | 2.0 | 0.00 | 0.00 | 0.00 | 73 | 1014.1 |
| 20260507174536 | 56 | 49 | 0.0 | 2.0 | 0.00 | 0.00 | 0.00 | 75 | 1014.0 |
| 20260507173034 | 57 | 0 | 2.0 | 5.0 | 0.00 | 0.00 | 0.00 | 72 | 1014.2 |
| 20260507171530 | 57 | 93 | 1.0 | 4.0 | 0.00 | 0.00 | 0.00 | 73 | 1014.1 |
| 20260507170030 | 56 | 0 | 0.0 | 6.0 | 0.00 | 0.00 | 0.00 | 76 | 1014.2 |
| 20260507164538 | 56 | 156 | 1.0 | 6.0 | 0.00 | 0.00 | 0.00 | 75 | 1014.2 |
| 20260507163029 | 58 | 123 | 0.0 | 3.0 | 0.00 | 0.00 | 0.00 | 74 | 1014.2 |
| 20260507161539 | 58 | 0 | 0.0 | 3.0 | 0.00 | 0.00 | 0.00 | 73 | 1014.1 |
| 20260507160035 | 59 | 169 | 0.0 | 4.0 | 0.00 | 0.00 | 0.00 | 73 | 1014.1 |
| 20260507154536 | 60 | 73 | 1.0 | 4.0 | 0.00 | 0.00 | 0.00 | 69 | 1014.1 |
| 20260507153029 | 59 | 91 | 1.0 | 5.0 | 0.00 | 0.00 | 0.00 | 67 | 1014.2 |
| 20260507151539 | 58 | 169 | 0.0 | 4.0 | 0.00 | 0.00 | 0.00 | 68 | 1014.2 |
| 20260507150032 | 58 | 127 | 2.0 | 6.0 | 0.00 | 0.00 | 0.00 | 69 | 1014.2 |
| 20260507144534 | 58 | 143 | 0.0 | 3.0 | 0.00 | 0.00 | 0.00 | 65 | 1014.2 |
| 20260507143030 | 58 | 0 | 0.0 | 4.0 | 0.00 | 0.00 | 0.00 | 66 | 1014.2 |
| 20260507141530 | 59 | 319 | 1.0 | 5.0 | 0.00 | 0.00 | 0.00 | 64 | 1014.3 |
| 20260507140029 | 59 | 131 | 0.0 | 5.0 | 0.00 | 0.00 | 0.00 | 68 | 1014.5 |
| 20260507134542 | 59 | 0 | 0.0 | 2.0 | 0.00 | 0.00 | 0.00 | 69 | 1014.6 |
| 20260507133030 | 58 | 55 | 1.0 | 3.0 | 0.00 | 0.00 | 0.00 | 69 | 1014.5 |
| 20260507131536 | 59 | 0 | 0.0 | 2.0 | 0.00 | 0.00 | 0.00 | 69 | 1014.7 |
| 20260507130029 | 59 | 71 | 0.0 | 3.0 | 0.00 | 0.00 | 0.00 | 70 | 1014.8 |
| 20260507124528 | 58 | 47 | 0.0 | 3.0 | 0.00 | 0.00 | 0.00 | 71 | 1014.8 |
| 20260507123030 | 58 | 0 | 1.0 | 6.0 | 0.00 | 0.00 | 0.00 | 71 | 1014.7 |
| 20260507121530 | 58 | 0 | 1.0 | 5.0 | 0.00 | 0.00 | 0.00 | 70 | 1014.7 |
| 20260507120029 | 59 | 0 | 0.0 | 3.0 | 0.00 | 0.00 | 0.00 | 70 | 1014.7 |
| 20260507114535 | 60 | 0 | 0.0 | 4.0 | 0.00 | 0.00 | 0.00 | 71 | 1014.7 |
| 20260507113028 | 59 | 26 | 0.0 | 4.0 | 0.00 | 0.00 | 0.00 | 71 | 1014.6 |
| 20260507111531 | 58 | 174 | 3.0 | 6.0 | 0.00 | 0.00 | 0.00 | 72 | 1014.6 |
| 20260507110042 | 59 | 147 | 1.0 | 8.0 | 0.00 | 0.00 | 0.00 | 73 | 1014.6 |
| 20260507104531 | 58 | 77 | 1.0 | 7.0 | 0.00 | 0.00 | 0.00 | 74 | 1014.6 |
| 20260507103032 | 57 | 136 | 3.0 | 7.0 | 0.00 | 0.00 | 0.00 | 74 | 1014.7 |
| 20260507101531 | 58 | 127 | 2.0 | 9.0 | 0.00 | 0.00 | 0.00 | 73 | 1014.7 |
| 20260507100034 | 57 | 105 | 3.0 | 8.0 | 0.00 | 0.00 | 0.00 | 74 | 1014.7 |
| 20260507094531 | 57 | 157 | 3.0 | 8.0 | 0.00 | 0.00 | 0.00 | 75 | 1014.6 |
| 20260507093032 | 56 | 162 | 3.0 | 10.0 | 0.00 | 0.00 | 0.00 | 76 | 1014.6 |
| 20260507091537 | 55 | 133 | 7.0 | 13.0 | 0.00 | 0.00 | 0.00 | 77 | 1014.5 |
| 20260507090037 | 55 | 121 | 4.0 | 11.0 | 0.00 | 0.00 | 0.00 | 78 | 1014.5 |
| 20260507084537 | 54 | 91 | 7.0 | 12.0 | 0.00 | 0.00 | 0.00 | 77 | 1014.5 |
| 20260507083037 | 54 | 158 | 5.0 | 10.0 | 0.00 | 0.00 | 0.00 | 79 | 1014.4 |
| 20260507081531 | 54 | 120 | 6.0 | 13.0 | 0.00 | 0.00 | 0.00 | 79 | 1014.3 |
| 20260507080030 | 52 | 136 | 7.0 | 13.0 | 0.00 | 0.00 | 0.00 | 80 | 1014.3 |
| 20260507074541 | 51 | 93 | 8.0 | 13.0 | 0.00 | 0.00 | 0.00 | 81 | 1014.3 |
| 20260507073030 | 51 | 115 | 7.0 | 13.0 | 0.00 | 0.00 | 0.00 | 82 | 1014.4 |
| 20260507071532 | 50 | 130 | 9.0 | 13.0 | 0.00 | 0.00 | 0.00 | 81 | 1014.3 |
| 20260507070030 | 50 | 128 | 10.0 | 18.0 | 0.00 | 0.00 | 0.00 | 81 | 1014.1 |
| 20260507064536 | 50 | 96 | 11.0 | 16.0 | 0.00 | 0.00 | 0.00 | 82 | 1014.1 |
| 20260507063034 | 50 | 107 | 9.0 | 14.0 | 0.00 | 0.00 | 0.00 | 81 | 1014.0 |
| 20260507061530 | 50 | 108 | 9.0 | 14.0 | 0.00 | 0.00 | 0.00 | 80 | 1014.0 |
| 20260507060028 | 50 | 109 | 8.0 | 14.0 | 0.00 | 0.00 | 0.00 | 80 | 1014.0 |
| 20260507054530 | 50 | 171 | 9.0 | 14.0 | 0.00 | 0.00 | 0.00 | 80 | 1013.9 |
| 20260507053032 | 50 | 108 | 9.0 | 15.0 | 0.00 | 0.00 | 0.00 | 80 | 1013.9 |
| 20260507051538 | 50 | 122 | 10.0 | 15.0 | 0.00 | 0.00 | 0.00 | 80 | 1013.8 |
| 20260507050037 | 50 | 93 | 9.0 | 14.0 | 0.00 | 0.00 | 0.00 | 80 | 1013.8 |
| 20260507044530 | 50 | 110 | 7.0 | 14.0 | 0.00 | 0.00 | 0.00 | 80 | 1013.8 |
| 20260507043030 | 50 | 110 | 5.0 | 14.0 | 0.00 | 0.00 | 0.00 | 80 | 1013.7 |
| 20260507041532 | 50 | 96 | 7.0 | 14.0 | 0.00 | 0.00 | 0.00 | 80 | 1013.8 |
| 20260507040030 | 50 | 100 | 7.0 | 13.0 | 0.00 | 0.00 | 0.00 | 80 | 1013.7 |
| 20260507034548 | 50 | 122 | 7.0 | 15.0 | 0.00 | 0.00 | 0.00 | 80 | 1013.7 |
| 20260507033039 | 51 | 130 | 8.0 | 14.0 | 0.00 | 0.00 | 0.00 | 79 | 1013.6 |
| 20260507031529 | 51 | 134 | 8.0 | 15.0 | 0.00 | 0.00 | 0.00 | 79 | 1013.7 |
| 20260507030030 | 51 | 122 | 6.0 | 13.0 | 0.00 | 0.00 | 0.00 | 78 | 1013.8 |
| 20260507024546 | 51 | 103 | 7.0 | 11.0 | 0.00 | 0.00 | 0.00 | 77 | 1013.8 |
| 20260507023030 | 51 | 109 | 4.0 | 8.0 | 0.00 | 0.00 | 0.00 | 77 | 1013.9 |
| 20260507021537 | 51 | 177 | 2.0 | 7.0 | 0.00 | 0.00 | 0.00 | 76 | 1013.9 |
| 20260507020032 | 51 | 110 | 2.0 | 7.0 | 0.00 | 0.00 | 0.00 | 76 | 1013.9 |
| 20260507014538 | 51 | 148 | 4.0 | 10.0 | 0.00 | 0.00 | 0.00 | 75 | 1014.0 |
| 20260507013034 | 52 | 122 | 5.0 | 10.0 | 0.00 | 0.00 | 0.00 | 75 | 1014.1 |
| 20260507011539 | 52 | 140 | 3.0 | 8.0 | 0.00 | 0.00 | 0.00 | 76 | 1013.9 |
| 20260507010033 | 52 | 153 | 0.0 | 1.0 | 0.00 | 0.00 | 0.00 | 85 | 1014.0 |
| 20260507004530 | 52 | 0 | 0.0 | 0.0 | 0.00 | 0.00 | 0.00 | 84 | 1014.0 |
| 20260507003031 | 52 | 0 | 0.0 | 0.0 | 0.00 | 0.00 | 0.00 | 83 | 1014.0 |
| 20260507001535 | 52 | 0 | 0.0 | 2.0 | 0.00 | 0.00 | 0.00 | 81 | 1014.0 |
| 20260507000034 | 52 | 173 | 0.0 | 1.0 | 0.00 | 0.00 | 0.00 | 80 | 1014.1 |
| 20260506234532 | 53 | 0 | 0.0 | 2.0 | 0.00 | 0.00 | 0.00 | 80 | 1014.1 |
| 20260506233030 | 52 | 109 | 0.0 | 2.0 | 0.00 | 0.00 | 0.00 | 79 | 1014.0 |
| 20260506231533 | 52 | 0 | 0.0 | 3.0 | 0.00 | 0.00 | 0.00 | 78 | 1014.1 |
| 20260506230040 | 53 | 0 | 0.0 | 1.0 | 0.00 | 0.00 | 0.00 | 78 | 1014.1 |
| 20260506224532 | 53 | 91 | 0.0 | 3.0 | 0.00 | 0.00 | 0.00 | 77 | 1014.2 |
| 20260506223030 | 53 | 107 | 0.0 | 3.0 | 0.00 | 0.00 | 0.00 | 76 | 1014.1 |
| 20260506221533 | 53 | 0 | 0.0 | 1.0 | 0.00 | 0.00 | 0.00 | 76 | 1014.1 |
| 20260506220032 | 53 | 0 | 0.0 | 2.0 | 0.00 | 0.00 | 0.00 | 75 | 1013.9 |
| 20260506214531 | 53 | 0 | 0.0 | 1.0 | 0.00 | 0.00 | 0.00 | 75 | 1013.9 |
| 20260506213032 | 53 | 0 | 0.0 | 2.0 | 0.00 | 0.00 | 0.00 | 74 | 1013.9 |
| 20260506211534 | 53 | 0 | 0.0 | 1.0 | 0.00 | 0.00 | 0.00 | 75 | 1013.8 |
| 20260506210031 | 53 | 357 | 0.0 | 2.0 | 0.00 | 0.00 | 0.00 | 75 | 1013.8 |
| 20260506204529 | 54 | 37 | 0.0 | 3.0 | 0.00 | 0.00 | 0.00 | 75 | 1013.9 |
| 20260506203032 | 54 | 0 | 0.0 | 1.0 | 0.00 | 0.00 | 0.00 | 74 | 1013.8 |
| 20260506201532 | 54 | 0 | 0.0 | 3.0 | 0.00 | 0.00 | 0.00 | 74 | 1013.7 |
| 20260506200029 | 54 | 0 | 0.0 | 2.0 | 0.00 | 0.00 | 0.00 | 73 | 1013.7 |
| 20260506194535 | 54 | 0 | 0.0 | 2.0 | 0.00 | 0.00 | 0.00 | 72 | 1013.6 |
| 20260506193034 | 55 | 303 | 1.0 | 4.0 | 0.00 | 0.00 | 0.00 | 70 | 1013.7 |
| 20260506191534 | 55 | 0 | 0.0 | 2.0 | 0.00 | 0.00 | 0.00 | 64 | 1013.6 |
| 20260506190030 | 55 | 0 | 0.0 | 0.0 | 0.00 | 0.00 | 0.00 | 64 | 1013.6 |